Weather History for Tonopah, NV

Change the Weather History Date:

Tuesday, February 4, 2014

  Actual Average Record
Temperature  
Mean Temperature 28 °F 35 °F  
Max Temperature 38 °F 47 °F 63 °F (1963)
Min Temperature 18 °F 23 °F -2 °F (1979)
Degree Days  
Heating Degree Days 37 30  
Month to date heating degree days 153 122  
Since 1 July heating degree days 3226 3373  
Cooling Degree Days 0 0  
Month to date cooling degree days 0 0  
Year to date cooling degree days 0 0  
Moisture  
Dew Point 10 °F    
Average Humidity 52    
Maximum Humidity 84    
Minimum Humidity 20    
Precipitation  
Precipitation 0.00 in 0.02 in 0.23 in (1989)
Month to date precipitation T 0.07  
Year to date precipitation 0.11 0.56  
Sea Level Pressure  
Sea Level Pressure 30.03 in    
Wind  
Wind Speed 11 mph (NW)    
Max Wind Speed 24 mph    
Max Gust Speed 30 mph    
Visibility 10 miles    
Events      
T = Trace of Precipitation, MM = Missing Value Source: NWS Daily Summary

Daily Weather History Graph

Daily Weather History Graph

Search for Another Location

Airport:

Trip Planner

Search our weather history database for the weather conditions in past years. The results will help you decide how hot, cold, wet, or windy it might be!

Date:

Astronomy

Feb. 04, 2014 Rise Set
Actual Time 6:50 AM PST 5:14 PM PST
Civil Twilight 6:22 AM PST 5:42 PM PST
Nautical Twilight 5:51 AM PST 6:13 PM PST
Astronomical Twilight 5:20 AM PST 6:44 PM PST
Moon 9:36 AM PST (2/4) 11:07 PM PST (2/4)
Length of Visible Light 11h 20m
Length of Day
10h 24m
Waxing Crescent, 30% of the Moon is Illuminated
Feb 4
Waxing Crescent
Feb 6
First Quarter
Feb 14
Full
Feb 22
Last Quarter
Mar 1
New

Hourly Weather History & Observations

Time (PST) Temp. Windchill Dew Point Humidity Pressure Visibility Wind Dir Wind Speed Gust Speed Precip Events Conditions
12:56 AM 23.0 °F 15.8 °F 16.0 °F 74% 29.94 in 10.0 mi NNW 5.8 mph - N/A   Clear
1:56 AM 21.9 °F 15.7 °F 15.1 °F 75% 29.94 in 10.0 mi North 4.6 mph - N/A   Clear
2:56 AM 21.9 °F 12.5 °F 16.0 °F 78% 29.95 in 10.0 mi WNW 8.1 mph - N/A   Mostly Cloudy
3:56 AM 19.9 °F 10.1 °F 15.1 °F 81% 29.97 in 10.0 mi WNW 8.1 mph - N/A   Clear
4:56 AM 18.0 °F 7.7 °F 12.9 °F 81% 29.99 in 10.0 mi WNW 8.1 mph - N/A   Clear
5:56 AM 18.0 °F 6.1 °F 12.9 °F 81% 30.01 in 10.0 mi West 10.4 mph - N/A   Clear
6:56 AM 23.0 °F 12.4 °F 17.1 °F 78% 30.01 in 10.0 mi WNW 10.4 mph - N/A   Clear
7:56 AM 26.1 °F 21.9 °F 19.0 °F 75% 30.04 in 10.0 mi NW 3.5 mph - N/A   Clear
8:56 AM 30.0 °F 20.0 °F 17.1 °F 59% 30.04 in 10.0 mi NNW 12.7 mph - N/A   Clear
9:56 AM 32.0 °F 22.5 °F 14.0 °F 48% 30.06 in 10.0 mi North 12.7 mph - N/A   Partly Cloudy
10:56 AM 34.0 °F 23.4 °F 10.9 °F 38% 30.06 in 10.0 mi NW 17.3 mph 26.5 mph N/A   Clear
11:56 AM 35.1 °F 24.5 °F 10.9 °F 37% 30.04 in 10.0 mi NW 18.4 mph 24.2 mph N/A   Clear
12:56 PM 36.0 °F 27.1 °F 10.0 °F 34% 30.01 in 10.0 mi NNW 13.8 mph - N/A   Clear
1:56 PM 37.0 °F 28.1 °F 3.9 °F 25% 30.01 in 10.0 mi NW 15.0 mph 24.2 mph N/A   Clear
2:56 PM 36.0 °F 24.7 °F -0.0 °F 22% 30.01 in 10.0 mi NNW 21.9 mph - N/A   Clear
3:56 PM 35.1 °F 23.8 °F -2.0 °F 21% 30.01 in 10.0 mi NNW 20.7 mph 25.3 mph N/A   Clear
4:56 PM 34.0 °F 24.6 °F -4.0 °F 20% 30.03 in 10.0 mi NNW 13.8 mph - N/A   Clear
5:56 PM 30.0 °F 26.5 °F 3.0 °F 32% 30.06 in 10.0 mi North 3.5 mph - N/A   Clear
6:56 PM 28.9 °F 25.2 °F 3.9 °F 35% 30.06 in 10.0 mi SW 3.5 mph - N/A   Clear
7:56 PM 23.0 °F 13.9 °F 8.1 °F 53% 30.08 in 10.0 mi WSW 8.1 mph - N/A   Clear
8:56 PM 24.1 °F 14.4 °F 8.1 °F 51% 30.09 in 10.0 mi WNW 9.2 mph - N/A   Clear
9:56 PM 21.9 °F 9.8 °F 9.0 °F 58% 30.09 in 10.0 mi WNW 12.7 mph - N/A   Clear
10:56 PM 23.0 °F 11.1 °F 10.0 °F 58% 30.09 in 10.0 mi North 12.7 mph - N/A   Clear
11:56 PM 21.0 °F 8.1 °F 9.0 °F 60% 30.10 in 10.0 mi North 13.8 mph - N/A   Clear